Location: Hilton Head Island
(32.2163°N, 80.7526°W)
Time: 22:41:50
(UTC-05:00)

Vanguard 1 - Pass Details

Date: 17 February 2026
Orbit: 653 x 3818 km, 34.2° (Epoch: 5 March)

Event Time Altitude Azimuth Distance (km) Brightness Sun altitude
Rises 18:58:47 0° 280° (W) 5,743 15.6 -10.8°
Reaches altitude 10° 19:01:54 10° 280° (W) 5,070 15.0 -11.4°
Maximum altitude 19:18:38 89° 13° (NNE) 3,433 12.7 -14.9°
Enters shadow 19:38:11 20° 104° (ESE) 6,077 13.5 -19.1°
Drops below altitude 10° 19:42:37 10° 105° (ESE) 6,853 - -20.0°
Sets 19:47:41 0° 106° (ESE) 7,741 - -21.1°
